Date,Time,Wetness (Wet Dry or Ice),Wind Speed (m/s),Temperature (C),Humidity (%),Pressure (mb),Radiation (W/m^2)
2019-11-21,03:05:00,DRY,2.00,6.30,20.5,771.00,1.6
2019-11-21,03:10:00,DRY,2.20,6.53,20.3,771.00,1.1
2019-11-21,03:15:00,DRY,2.10,6.50,22.5,771.00,0.8
2019-11-21,03:20:00,DRY,2.03,6.40,22.7,771.00,0.7
2019-11-21,03:25:00,DRY,2.70,6.20,24.0,771.00,1.2
2019-11-21,03:30:00,DRY,4.17,6.23,22.7,771.00,1.1
2019-11-21,03:35:00,DRY,2.20,6.15,22.5,771.00,1.5
2019-11-21,03:40:00,DRY,5.07,6.03,23.0,770.33,1.2
2019-11-21,03:45:00,DRY,4.10,5.90,23.0,770.00,1.4
2019-11-21,03:50:00,DRY,2.10,5.50,25.0,770.00,1.4
2019-11-21,03:55:00,DRY,2.65,5.40,24.5,770.00,0.8
2019-11-21,04:00:00,DRY,3.13,5.20,27.0,770.00,1.1
2019-11-21,04:05:00,DRY,6.35,5.35,27.0,770.00,1.1
2019-11-21,04:10:00,DRY,3.33,5.20,24.7,770.00,1.3
2019-11-21,04:15:00,DRY,4.00,5.20,27.0,770.00,1.4
2019-11-21,04:20:00,DRY,4.67,5.10,28.0,770.00,1.0
2019-11-21,04:25:00,DRY,5.90,5.10,35.0,770.00,1.1
2019-11-21,04:30:00,DRY,4.37,5.17,36.3,770.00,1.0
2019-11-21,04:35:00,DRY,3.70,5.10,35.5,770.00,1.6
2019-11-21,04:40:00,DRY,3.70,5.13,37.0,770.00,1.1
2019-11-21,04:45:00,DRY,4.00,5.25,39.0,770.00,1.0
2019-11-21,04:50:00,DRY,3.13,5.10,39.3,770.00,1.4
2019-11-21,04:55:00,DRY,2.95,5.55,37.5,770.00,1.0
2019-11-21,05:00:00,DRY,1.93,6.20,32.7,770.00,1.5
2019-11-21,05:05:00,DRY,2.90,6.65,25.0,770.00,1.0
2019-11-21,05:10:00,DRY,2.53,6.90,24.7,770.00,0.6
2019-11-21,05:15:00,DRY,2.40,6.80,29.5,770.00,0.7
2019-11-21,05:20:00,DRY,4.30,6.87,25.0,770.00,1.3
2019-11-21,05:25:00,DRY,4.40,6.40,27.0,770.00,0.9
2019-11-21,05:30:00,DRY,4.27,6.30,33.7,770.00,1.1
2019-11-21,05:35:00,DRY,5.55,6.20,44.5,770.00,0.9
2019-11-21,05:40:00,DRY,5.20,6.17,49.0,770.00,1.2
2019-11-21,05:45:00,DRY,4.90,5.70,57.5,770.00,1.2
2019-11-21,05:50:00,DRY,3.53,5.27,63.7,770.00,1.1
2019-11-21,05:55:00,DRY,4.70,5.45,63.0,770.00,0.9
2019-11-21,06:00:00,DRY,3.83,5.63,62.3,770.00,1.3
2019-11-21,06:05:00,DRY,3.45,5.40,67.5,770.00,1.1
2019-11-21,06:10:00,DRY,4.10,5.13,72.0,770.00,1.3
2019-11-21,06:15:00,DRY,4.45,4.90,76.0,770.00,2.1
2019-11-21,06:20:00,DRY,4.83,4.83,79.0,770.00,1.8
2019-11-21,06:25:00,DRY,4.80,4.85,82.5,770.00,1.4
2019-11-21,06:30:00,DRY,4.60,4.90,84.3,770.33,1.2
2019-11-21,06:35:00,DRY,4.70,5.00,85.5,770.00,1.4
2019-11-21,06:40:00,DRY,4.77,5.20,86.3,770.33,1.4
2019-11-21,06:45:00,DRY,5.85,5.25,87.0,770.50,1.4
2019-11-21,06:50:00,DRY,4.87,5.17,89.7,770.67,1.2
2019-11-21,06:55:00,DRY,6.00,5.15,91.0,771.00,1.5
2019-11-21,07:00:00,DRY,5.27,5.27,89.3,770.67,1.5
2019-11-21,07:05:00,DRY,5.55,5.55,87.5,770.50,1.7
2019-11-21,07:10:00,DRY,4.27,5.57,87.0,771.00,1.5
2019-11-21,07:15:00,DRY,5.70,5.90,85.0,770.50,1.6
2019-11-21,07:20:00,DRY,5.90,5.43,90.7,771.00,2.2
2019-11-21,07:25:00,DRY,4.90,5.20,94.5,771.00,2.5
2019-11-21,07:30:00,DRY,5.43,5.00,96.0,771.00,5.0
2019-11-21,07:35:00,DRY,7.75,4.85,97.0,770.50,7.8
2019-11-21,07:40:00,DRY,6.90,4.87,97.0,771.00,11.3
2019-11-21,07:45:00,DRY,5.80,4.80,97.5,771.00,15.2
2019-11-21,07:50:00,DRY,5.07,4.90,98.0,771.00,27.4
2019-11-21,07:55:00,DRY,5.05,5.05,98.0,771.00,32.1
2019-11-21,08:00:00,DRY,5.97,5.23,98.7,771.00,47.8
2019-11-21,08:05:00,DRY,5.00,5.25,99.0,771.00,61.8
2019-11-21,08:10:00,DRY,5.60,5.37,99.0,771.00,85.7
2019-11-21,08:15:00,DRY,5.30,5.50,99.0,771.00,86.2
2019-11-21,08:20:00,DRY,4.70,5.67,99.0,771.00,97.4
2019-11-21,08:25:00,DRY,6.45,5.85,99.0,771.00,99.4
2019-11-21,08:30:00,DRY,5.47,5.90,99.0,771.00,119.6
2019-11-21,08:35:00,DRY,6.80,6.00,99.0,771.00,125.0
2019-11-21,08:40:00,DRY,6.53,5.93,99.0,771.00,122.1
2019-11-21,08:45:00,DRY,7.45,6.00,99.0,771.00,125.8
2019-11-21,08:50:00,DRY,6.93,6.10,99.0,771.00,131.0
2019-11-21,08:55:00,DRY,7.15,6.30,99.0,771.00,175.4
2019-11-21,09:00:00,DRY,7.93,6.30,99.0,771.00,152.4
2019-11-21,09:05:00,DRY,7.65,6.25,99.0,771.00,140.0
2019-11-21,09:10:00,DRY,7.80,6.27,99.0,771.00,150.2
2019-11-21,09:15:00,DRY,7.60,6.35,99.0,771.00,182.0
2019-11-21,09:20:00,DRY,7.53,6.43,99.0,771.00,187.1
2019-11-21,09:25:00,DRY,8.30,6.40,99.0,771.00,139.9
2019-11-21,09:30:00,DRY,9.23,6.40,99.0,771.00,169.9
2019-11-21,09:35:00,DRY,8.45,6.35,99.0,771.00,187.6
2019-11-21,09:40:00,DRY,8.57,6.33,99.0,771.00,172.6
2019-11-21,09:45:00,DRY,8.00,6.40,99.0,771.00,166.2
2019-11-21,09:50:00,DRY,7.30,6.50,99.3,771.00,180.1
2019-11-21,09:55:00,DRY,7.25,6.50,99.0,771.50,208.2
2019-11-21,10:00:00,DRY,7.60,6.67,99.0,771.00,218.5
2019-11-21,10:05:00,DRY,8.05,6.70,99.0,771.50,246.5
2019-11-21,10:10:00,DRY,7.97,6.73,99.0,771.33,257.1
2019-11-21,10:15:00,DRY,8.45,6.80,99.0,771.00,232.0
2019-11-21,10:20:00,DRY,7.40,6.83,99.3,771.67,264.5
2019-11-21,10:25:00,DRY,7.85,6.80,99.0,771.50,279.1
2019-11-21,10:30:00,DRY,6.93,6.80,99.0,772.00,350.2
2019-11-21,10:35:00,DRY,9.05,6.90,99.0,771.50,306.6
2019-11-21,10:40:00,DRY,8.70,6.97,99.0,772.00,304.9
2019-11-21,10:45:00,DRY,7.20,7.10,99.0,771.50,303.9
2019-11-21,10:50:00,DRY,8.03,7.10,99.0,771.67,318.5
2019-11-21,10:55:00,DRY,7.80,7.15,99.0,772.00,334.1
2019-11-21,11:00:00,DRY,6.93,7.27,99.0,772.00,377.3
2019-11-21,11:05:00,DRY,6.55,7.30,99.0,772.00,346.5
2019-11-21,11:10:00,DRY,6.20,7.33,99.0,772.00,406.1
2019-11-21,11:15:00,DRY,6.80,7.45,99.0,772.00,428.5
2019-11-21,11:20:00,DRY,6.75,7.40,99.0,772.00,456.9
2019-11-21,11:25:00,DRY,6.60,7.40,99.0,772.00,355.2
2019-11-21,11:30:00,DRY,5.63,7.43,99.0,772.00,315.9
2019-11-21,11:35:00,DRY,6.75,7.40,99.0,772.00,332.9
2019-11-21,11:40:00,DRY,7.97,7.43,99.0,772.00,305.3
2019-11-21,11:45:00,DRY,8.20,7.50,99.0,772.00,302.6
2019-11-21,11:50:00,DRY,6.87,7.43,99.0,772.00,324.5
2019-11-21,11:55:00,DRY,8.75,7.30,99.0,772.00,373.1
2019-11-21,12:00:00,DRY,8.03,7.40,99.3,771.67,379.2
2019-11-21,12:05:00,DRY,8.90,7.30,99.0,771.00,321.2
2019-11-21,12:10:00,DRY,8.87,7.47,99.3,771.00,332.8
2019-11-21,12:15:00,DRY,8.05,7.55,99.0,771.00,323.3
2019-11-21,12:20:00,DRY,7.53,7.60,99.0,771.00,398.6
2019-11-21,12:25:00,DRY,7.40,7.70,99.0,771.00,435.4
2019-11-21,12:30:00,DRY,6.20,7.67,99.3,771.00,337.0
2019-11-21,12:35:00,DRY,6.60,7.70,99.0,771.00,397.3
2019-11-21,12:40:00,DRY,6.73,7.77,99.0,771.00,400.4
2019-11-21,12:45:00,DRY,7.15,7.65,99.0,771.00,279.6
2019-11-21,12:50:00,DRY,6.80,7.73,99.0,771.00,449.5
2019-11-21,12:55:00,DRY,7.70,7.60,99.0,771.00,430.8
2019-11-21,13:00:00,DRY,6.80,7.73,99.0,771.00,409.8
2019-11-21,13:05:00,DRY,6.20,7.70,99.0,771.00,533.5
2019-11-21,13:10:00,DRY,7.83,7.73,99.0,771.00,496.7
2019-11-21,13:15:00,DRY,6.85,7.75,99.0,771.00,389.3
2019-11-21,13:20:00,DRY,6.50,7.77,99.0,771.00,416.2
2019-11-21,13:25:00,DRY,8.30,7.75,99.5,771.00,439.9
2019-11-21,13:30:00,DRY,4.10,7.80,99.0,771.00,455.2
2019-11-21,13:35:00,DRY,4.30,7.60,99.0,771.00,616.1
2019-11-21,13:40:00,DRY,5.20,7.80,99.3,771.00,449.1
2019-11-21,13:45:00,DRY,4.90,7.75,99.5,771.00,408.4
2019-11-21,13:50:00,DRY,5.73,7.73,99.0,771.00,527.1
2019-11-21,13:55:00,DRY,4.90,8.00,99.0,771.00,453.5
2019-11-21,14:00:00,DRY,4.20,7.77,99.0,771.00,436.6
2019-11-21,14:05:00,DRY,3.75,7.95,99.0,771.00,395.7
2019-11-21,14:10:00,WET,4.83,7.80,99.0,771.00,423.4
2019-11-21,14:15:00,WET,4.55,7.85,99.0,770.00,441.0
2019-11-21,14:20:00,WET,4.33,8.03,99.0,770.00,400.9
2019-11-21,14:25:00,WET,2.30,7.80,99.0,770.50,302.2
2019-11-21,14:30:00,WET,7.43,7.23,99.0,770.00,342.2
2019-11-21,14:35:00,WET,2.60,7.00,99.0,770.00,391.1
2019-11-21,14:40:00,WET,3.77,7.13,99.0,770.00,404.6
2019-11-21,14:45:00,WET,3.45,7.10,99.0,770.00,386.1
2019-11-21,14:50:00,DRY,4.33,6.43,99.0,770.00,406.5
2019-11-21,14:55:00,DRY,3.30,6.10,99.0,770.00,346.4
2019-11-21,15:00:00,DRY,2.60,6.10,99.0,770.00,354.6
2019-11-21,15:05:00,DRY,2.25,6.40,99.0,770.00,293.1
2019-11-21,15:10:00,DRY,3.00,6.33,99.0,770.00,321.6
2019-11-21,15:15:00,DRY,6.60,6.40,99.5,770.00,259.4
2019-11-21,15:20:00,DRY,4.53,6.87,99.7,770.00,462.4
2019-11-21,15:25:00,DRY,6.00,7.05,99.5,770.00,288.8
2019-11-21,15:30:00,DRY,6.83,6.93,99.3,770.00,272.0
2019-11-21,15:35:00,DRY,6.10,7.10,99.5,770.00,398.9
2019-11-21,15:40:00,DRY,6.73,7.03,99.3,770.00,309.6
2019-11-21,15:45:00,DRY,7.30,7.10,100.0,770.00,235.2
2019-11-21,15:50:00,DRY,6.60,6.97,99.3,770.00,192.6
2019-11-21,15:55:00,DRY,6.10,7.10,100.0,770.00,181.0
2019-11-21,16:00:00,DRY,7.73,7.30,100.0,770.00,228.1
2019-11-21,16:05:00,DRY,5.70,7.30,100.0,770.00,203.1
2019-11-21,16:10:00,DRY,6.17,7.30,100.0,770.00,224.6
2019-11-21,16:15:00,DRY,3.80,7.40,100.0,771.00,216.3
2019-11-21,16:20:00,DRY,5.23,7.27,100.0,771.00,199.4
2019-11-21,16:25:00,DRY,6.10,7.30,100.0,770.00,198.6
2019-11-21,16:30:00,DRY,3.83,7.27,100.0,770.00,186.3
2019-11-21,16:35:00,DRY,6.20,7.35,100.0,770.50,225.0
2019-11-21,16:40:00,DRY,4.20,7.20,100.0,770.33,192.0
2019-11-21,16:45:00,DRY,2.40,6.55,99.0,771.00,299.9
2019-11-21,16:50:00,DRY,5.00,6.40,99.3,771.00,241.0
2019-11-21,16:55:00,DRY,4.85,6.20,99.0,771.00,224.2
2019-11-21,17:00:00,DRY,3.33,6.57,99.3,771.00,129.2
2019-11-21,17:05:00,DRY,2.90,6.60,99.5,771.00,123.6
2019-11-21,17:10:00,DRY,5.70,5.67,99.0,771.00,169.5
2019-11-21,17:15:00,DRY,5.00,5.85,99.0,771.00,157.7
2019-11-21,17:20:00,DRY,8.30,5.77,85.7,771.00,111.9
2019-11-21,17:25:00,DRY,6.40,5.80,73.0,771.00,65.5
2019-11-21,17:30:00,DRY,7.20,6.03,52.7,771.00,54.4
2019-11-21,17:35:00,DRY,8.30,6.30,46.5,771.00,46.0
2019-11-21,17:40:00,DRY,6.77,6.10,65.7,771.00,55.6
2019-11-21,17:45:00,DRY,7.10,6.35,55.0,771.00,53.2
2019-11-21,17:50:00,DRY,6.87,6.43,63.7,770.67,69.9
2019-11-21,17:55:00,DRY,7.05,6.85,62.0,771.00,63.2
2019-11-21,18:00:00,DRY,8.40,6.63,53.7,771.00,51.7
2019-11-21,18:05:00,DRY,7.10,6.20,54.5,771.00,44.0
2019-11-21,18:10:00,DRY,8.13,6.17,53.7,771.00,40.1
2019-11-21,18:15:00,DRY,7.60,6.10,62.5,771.00,36.5
2019-11-21,18:20:00,DRY,7.63,6.07,63.0,771.00,32.7
2019-11-21,18:25:00,DRY,7.30,6.20,61.5,771.00,29.8
2019-11-21,18:30:00,DRY,8.17,6.17,54.7,771.00,27.6
2019-11-21,18:35:00,DRY,6.70,6.25,59.5,771.00,25.8
2019-11-21,18:40:00,DRY,7.27,5.80,68.3,771.00,25.5
2019-11-21,18:45:00,DRY,6.05,5.70,77.5,771.00,25.4
2019-11-21,18:50:00,DRY,6.37,5.73,86.7,771.00,27.5
2019-11-21,18:55:00,DRY,6.10,5.95,94.0,771.00,29.1
2019-11-21,19:00:00,DRY,6.67,5.93,97.7,771.00,36.4
2019-11-21,19:05:00,DRY,7.15,5.75,96.5,771.00,34.2
2019-11-21,19:10:00,DRY,7.30,5.93,97.0,771.00,33.1
2019-11-21,19:15:00,DRY,6.95,5.85,97.0,771.00,29.4
2019-11-21,19:20:00,DRY,7.43,5.90,94.0,771.00,28.4
2019-11-21,19:25:00,DRY,7.60,5.90,86.0,771.00,27.0
2019-11-21,19:30:00,DRY,7.27,6.07,86.0,771.00,25.2
2019-11-21,19:35:00,DRY,6.15,5.80,95.5,771.00,27.8
2019-11-21,19:40:00,DRY,7.90,5.93,89.3,771.00,25.9
2019-11-21,19:45:00,DRY,9.30,6.50,71.5,771.00,21.6
2019-11-21,19:50:00,DRY,9.87,6.63,66.3,771.00,18.1
2019-11-21,19:55:00,DRY,9.20,6.70,67.5,771.00,15.7
2019-11-21,20:00:00,DRY,9.07,6.57,68.3,771.00,13.4
2019-11-21,20:05:00,DRY,8.35,6.50,73.5,771.00,9.7
2019-11-21,20:10:00,DRY,7.43,6.60,72.3,771.00,6.9
2019-11-21,20:15:00,DRY,7.20,6.60,72.0,771.00,5.5
2019-11-21,20:20:00,DRY,8.17,6.67,68.7,771.00,4.2
2019-11-21,20:25:00,DRY,9.10,6.70,67.0,771.00,2.0
2019-11-21,20:30:00,DRY,7.90,6.37,78.3,771.00,2.2
2019-11-21,20:35:00,DRY,7.45,6.20,87.5,771.50,2.7
2019-11-21,20:40:00,DRY,5.80,6.30,80.0,771.33,2.4
2019-11-21,20:45:00,DRY,6.60,6.25,78.5,772.00,2.2
2019-11-21,20:50:00,DRY,7.30,6.33,78.3,772.00,2.0
2019-11-21,20:55:00,DRY,6.90,6.50,77.0,772.00,1.9
2019-11-21,21:00:00,DRY,6.33,6.47,72.3,772.00,2.1
2019-11-21,21:05:00,DRY,5.80,6.40,76.0,772.00,1.8
2019-11-21,21:10:00,DRY,5.90,6.27,75.7,772.00,1.6
2019-11-21,21:15:00,DRY,5.40,6.10,77.5,772.00,1.7
2019-11-21,21:20:00,DRY,5.67,6.07,77.0,772.00,1.5
2019-11-21,21:25:00,DRY,6.10,6.05,75.0,772.00,1.4
2019-11-21,21:30:00,DRY,6.20,6.13,73.7,772.00,1.4
2019-11-21,21:35:00,DRY,7.40,6.05,72.5,772.00,1.4
2019-11-21,21:40:00,DRY,6.83,6.07,75.3,772.00,1.3
2019-11-21,21:45:00,DRY,7.75,6.10,77.0,772.00,1.4
2019-11-21,21:50:00,DRY,7.37,6.00,77.7,772.00,1.7
2019-11-21,21:55:00,DRY,7.05,6.00,77.5,772.00,1.5
2019-11-21,22:00:00,DRY,7.23,6.07,75.0,772.00,1.6
2019-11-21,22:05:00,DRY,7.45,5.90,78.0,772.00,1.2
2019-11-21,22:10:00,DRY,7.27,5.87,74.3,772.00,1.4
2019-11-21,22:15:00,DRY,6.35,6.05,72.5,772.00,1.1
2019-11-21,22:20:00,DRY,6.23,6.00,74.3,772.00,1.3
2019-11-21,22:25:00,DRY,6.50,5.95,73.5,772.00,1.4
2019-11-21,22:30:00,DRY,5.70,5.83,72.7,772.00,1.5
2019-11-21,22:35:00,DRY,6.15,5.85,72.5,772.00,1.6
2019-11-21,22:40:00,DRY,5.90,5.80,74.3,772.00,1.7
2019-11-21,22:45:00,DRY,5.00,5.75,76.0,772.00,1.1
2019-11-21,22:50:00,DRY,6.00,5.67,76.0,772.00,1.2
2019-11-21,22:55:00,DRY,5.85,5.70,76.0,772.00,1.0
2019-11-21,23:00:00,DRY,5.53,5.87,67.0,772.00,1.3
2019-11-21,23:05:00,DRY,5.50,5.50,79.5,772.00,1.3
2019-11-21,23:10:00,DRY,5.97,5.47,80.0,772.00,1.7
2019-11-21,23:15:00,DRY,5.50,5.45,81.0,772.00,1.6
2019-11-21,23:20:00,DRY,5.40,5.53,80.7,772.00,1.5
2019-11-21,23:25:00,DRY,3.70,5.50,80.0,772.00,2.4
2019-11-21,23:30:00,DRY,5.17,5.97,59.0,772.00,0.9
2019-11-21,23:35:00,DRY,5.70,6.15,48.5,772.00,1.0
2019-11-21,23:40:00,DRY,6.73,6.17,39.3,772.00,1.2
2019-11-21,23:45:00,DRY,7.65,6.45,31.0,772.00,1.0
2019-11-21,23:50:00,DRY,8.37,6.47,30.0,772.00,1.1
2019-11-21,23:55:00,DRY,7.60,6.65,29.5,772.00,0.8
2019-11-22,00:00:00,DRY,6.33,7.20,28.0,772.00,1.2
2019-11-22,00:05:00,DRY,5.95,7.10,29.0,772.00,0.5
2019-11-22,00:10:00,DRY,6.20,7.10,25.3,772.00,1.2
2019-11-22,00:15:00,DRY,5.40,7.25,26.5,772.00,1.3
2019-11-22,00:20:00,DRY,6.37,7.27,26.0,772.00,1.1
2019-11-22,00:25:00,DRY,6.20,7.15,24.5,772.00,0.9
2019-11-22,00:30:00,DRY,5.57,7.10,23.3,772.00,1.7
2019-11-22,00:35:00,DRY,4.70,7.00,25.0,772.00,1.6
2019-11-22,00:40:00,DRY,5.20,6.73,27.0,772.00,1.8
2019-11-22,00:45:00,DRY,7.35,6.90,26.0,772.00,1.8
2019-11-22,00:50:00,DRY,7.00,7.63,21.7,772.00,1.2
2019-11-22,00:55:00,DRY,6.10,7.60,22.5,772.00,1.1
2019-11-22,01:00:00,DRY,6.17,7.67,22.7,772.00,1.5
2019-11-22,01:05:00,DRY,7.35,8.05,21.0,772.00,1.1
2019-11-22,01:10:00,DRY,5.33,7.30,24.0,772.00,0.9
2019-11-22,01:15:00,DRY,6.10,7.65,21.5,772.00,1.4
2019-11-22,01:20:00,DRY,6.67,7.60,21.7,772.00,1.4
2019-11-22,01:25:00,DRY,5.90,7.70,22.5,772.00,1.0
2019-11-22,01:30:00,DRY,5.97,7.57,21.7,772.00,1.2
2019-11-22,01:35:00,DRY,5.85,7.65,20.0,772.00,0.5
2019-11-22,01:40:00,DRY,6.13,7.80,20.3,772.00,0.9
2019-11-22,01:45:00,DRY,6.10,7.85,19.0,772.00,1.2
2019-11-22,01:50:00,DRY,5.60,7.57,21.7,772.00,1.3
2019-11-22,01:55:00,DRY,6.80,7.55,22.5,772.00,1.1
2019-11-22,02:00:00,DRY,5.90,7.90,22.0,772.00,1.0
2019-11-22,02:05:00,DRY,6.65,8.00,22.0,772.00,1.3
2019-11-22,02:10:00,DRY,5.70,7.97,22.0,772.00,1.2
2019-11-22,02:15:00,DRY,5.40,7.50,22.5,772.00,1.4
2019-11-22,02:20:00,DRY,5.80,7.27,21.7,772.00,1.4
2019-11-22,02:25:00,DRY,5.15,7.10,23.0,772.00,1.3
2019-11-22,02:30:00,DRY,5.23,7.33,21.3,772.00,1.1
2019-11-22,02:35:00,DRY,4.55,7.15,22.5,772.00,1.4
2019-11-22,02:40:00,DRY,4.73,7.20,21.3,772.00,1.4
2019-11-22,02:45:00,DRY,5.20,6.85,23.5,772.00,1.1
2019-11-22,02:50:00,DRY,4.70,6.93,23.7,772.00,1.1
2019-11-22,02:55:00,DRY,4.80,7.10,23.0,772.00,1.1
2019-11-22,03:00:00,DRY,5.00,7.70,22.3,772.00,1.0
2019-11-22,03:05:00,DRY,5.65,7.35,24.0,772.00,1.4
2019-11-22,03:10:00,DRY,4.83,7.23,24.0,772.00,0.9
2019-11-22,03:15:00,DRY,5.15,6.85,23.5,772.00,0.4
2019-11-22,03:20:00,DRY,4.60,7.20,23.0,772.00,1.6
2019-11-22,03:25:00,DRY,5.30,7.30,24.5,772.00,1.4
2019-11-22,03:30:00,DRY,5.77,7.30,26.3,772.00,1.4
2019-11-22,03:35:00,DRY,5.55,7.35,26.0,772.00,1.0
2019-11-22,03:40:00,DRY,5.70,7.57,25.0,772.00,1.1
2019-11-22,03:45:00,DRY,5.25,7.35,27.0,772.00,1.1
2019-11-22,03:50:00,DRY,5.57,7.37,25.3,772.00,1.2
2019-11-22,03:55:00,DRY,6.35,7.65,24.0,771.50,1.4
2019-11-22,04:00:00,DRY,5.60,7.40,25.7,772.00,1.8
2019-11-22,04:05:00,DRY,5.30,7.30,26.0,771.50,1.3
2019-11-22,04:10:00,DRY,5.50,7.43,25.0,772.00,1.0
2019-11-22,04:15:00,DRY,5.10,7.45,25.5,772.00,1.1
2019-11-22,04:20:00,DRY,5.03,7.50,25.3,772.00,0.9
2019-11-22,04:25:00,DRY,5.45,7.30,25.5,772.00,1.2
2019-11-22,04:30:00,DRY,5.50,7.83,24.3,772.00,1.2
2019-11-22,04:35:00,DRY,4.95,7.45,26.0,772.00,1.1
2019-11-22,04:40:00,DRY,5.37,7.17,27.0,772.00,1.4
2019-11-22,04:45:00,DRY,5.55,7.30,26.5,771.50,1.3
2019-11-22,04:50:00,DRY,5.53,7.37,26.7,771.00,1.1
2019-11-22,04:55:00,DRY,4.80,7.15,27.5,771.50,1.2
2019-11-22,05:00:00,DRY,5.30,7.27,27.0,771.00,0.9
2019-11-22,05:05:00,DRY,4.75,7.45,26.5,771.00,1.1
2019-11-22,05:10:00,DRY,5.00,7.43,26.3,771.33,0.9
2019-11-22,05:15:00,DRY,5.50,7.55,26.0,771.00,1.2
2019-11-22,05:20:00,DRY,5.20,7.50,25.7,771.67,1.2
2019-11-22,05:25:00,DRY,5.15,7.45,26.0,771.50,0.8
2019-11-22,05:30:00,DRY,5.53,7.47,26.0,771.00,0.8
2019-11-22,05:35:00,DRY,4.50,7.25,26.0,771.00,1.2
2019-11-22,05:40:00,DRY,5.17,7.23,26.0,771.00,2.0
2019-11-22,05:45:00,DRY,5.25,7.40,24.5,771.00,1.4
2019-11-22,05:50:00,DRY,4.37,7.37,25.7,771.33,0.9
2019-11-22,05:55:00,DRY,4.75,7.50,25.5,771.00,1.4
2019-11-22,06:00:00,DRY,4.87,7.43,26.0,771.67,1.8
2019-11-22,06:05:00,DRY,4.45,7.20,26.5,771.50,1.3
2019-11-22,06:10:00,DRY,5.20,7.20,26.3,772.00,1.3
2019-11-22,06:15:00,DRY,5.15,7.25,26.0,772.00,1.1
2019-11-22,06:20:00,DRY,5.47,7.23,26.0,772.00,1.1
2019-11-22,06:25:00,DRY,5.65,7.10,27.0,772.00,1.2
2019-11-22,06:30:00,DRY,4.97,6.97,27.7,772.00,1.0
2019-11-22,06:35:00,DRY,5.85,7.00,26.5,772.00,0.9
2019-11-22,06:40:00,DRY,5.73,7.17,27.3,772.00,1.4
2019-11-22,06:45:00,DRY,6.15,7.20,27.5,772.00,0.8
2019-11-22,06:50:00,DRY,5.67,7.00,28.3,772.00,1.1
2019-11-22,06:55:00,DRY,5.80,7.00,28.0,772.00,0.7
2019-11-22,07:00:00,DRY,5.53,6.80,28.0,772.00,1.1
2019-11-22,07:05:00,DRY,5.45,6.70,28.0,772.00,0.6
2019-11-22,07:10:00,DRY,5.25,6.75,29.0,772.00,1.3
2019-11-22,07:15:00,DRY,5.50,6.70,28.5,772.00,1.1
2019-11-22,07:20:00,DRY,5.90,6.83,28.0,772.00,1.2
2019-11-22,07:25:00,DRY,6.30,6.95,26.5,772.00,2.1
2019-11-22,07:30:00,DRY,6.23,6.73,28.0,772.00,3.7
2019-11-22,07:35:00,DRY,5.75,6.75,28.5,772.00,5.3
2019-11-22,07:40:00,DRY,6.30,6.87,27.0,772.00,7.3
2019-11-22,07:45:00,DRY,6.00,6.60,28.0,772.00,11.1
2019-11-22,07:50:00,DRY,6.23,6.77,26.7,772.00,14.5
2019-11-22,07:55:00,DRY,5.80,6.70,27.5,772.00,17.9
2019-11-22,08:00:00,DRY,6.07,6.60,28.0,772.00,21.9
2019-11-22,08:05:00,DRY,5.55,6.45,29.0,772.00,25.2
2019-11-22,08:10:00,DRY,5.73,6.60,28.3,772.00,28.8
2019-11-22,08:15:00,DRY,5.80,6.45,28.5,772.00,35.9
2019-11-22,08:20:00,DRY,5.10,6.83,27.3,773.00,114.9
2019-11-22,08:25:00,DRY,5.45,6.50,29.5,773.00,157.3
2019-11-22,08:30:00,DRY,6.17,6.40,29.3,773.00,175.9
2019-11-22,08:35:00,DRY,5.45,6.50,30.0,773.00,190.4
2019-11-22,08:40:00,DRY,5.57,6.60,28.0,773.00,216.3
2019-11-22,08:45:00,DRY,6.45,6.55,26.5,773.00,241.2
2019-11-22,08:50:00,DRY,5.83,6.40,27.3,773.00,260.6
2019-11-22,08:55:00,DRY,5.45,6.25,28.0,773.00,280.2
2019-11-22,09:00:00,DRY,6.03,6.40,26.0,773.00,295.9
2019-11-22,09:05:00,DRY,6.60,6.60,24.5,773.00,310.8
2019-11-22,09:10:00,DRY,7.70,6.93,24.0,773.00,329.9
2019-11-22,09:15:00,DRY,5.40,7.05,24.5,773.00,347.7
2019-11-22,09:20:00,DRY,6.23,6.93,25.7,773.00,363.7
2019-11-22,09:25:00,DRY,6.20,7.05,21.5,773.00,387.7
2019-11-22,09:30:00,DRY,5.83,7.10,23.7,773.00,406.8
2019-11-22,09:35:00,DRY,6.10,7.45,22.0,773.00,424.4
2019-11-22,09:40:00,DRY,6.20,7.47,25.3,773.00,442.5
2019-11-22,09:45:00,DRY,6.35,7.55,30.5,773.00,457.9
2019-11-22,09:50:00,DRY,5.60,7.70,37.0,773.00,474.9
2019-11-22,09:55:00,DRY,6.10,7.80,51.0,773.00,490.8
2019-11-22,10:00:00,DRY,6.60,7.83,50.7,773.00,503.9
2019-11-22,10:05:00,DRY,6.15,7.95,48.5,773.00,519.0
2019-11-22,10:10:00,DRY,6.20,7.83,52.7,773.00,533.6
2019-11-22,10:15:00,DRY,6.15,7.95,51.5,773.00,548.5
2019-11-22,10:20:00,DRY,6.27,7.83,51.0,773.00,565.0
2019-11-22,10:25:00,DRY,6.60,8.05,58.0,773.00,579.8
2019-11-22,10:30:00,DRY,6.03,8.17,57.7,773.00,593.6
2019-11-22,10:35:00,DRY,7.45,8.20,59.0,773.00,607.4
2019-11-22,10:40:00,DRY,6.20,8.13,53.0,773.00,619.0
2019-11-22,10:45:00,DRY,7.25,8.05,50.0,773.00,629.9
2019-11-22,10:50:00,DRY,6.10,7.83,53.3,773.00,641.0
2019-11-22,10:55:00,DRY,6.45,7.70,57.5,773.00,654.6
2019-11-22,11:00:00,DRY,6.93,7.67,56.0,773.00,665.7
2019-11-22,11:05:00,DRY,7.85,7.70,57.0,773.00,677.4
2019-11-22,11:10:00,DRY,5.43,7.67,61.0,773.00,689.0
2019-11-22,11:15:00,DRY,5.60,7.35,64.5,773.00,698.8
2019-11-22,11:20:00,DRY,5.33,7.30,69.0,773.00,708.3
2019-11-22,11:25:00,DRY,6.35,7.20,73.5,773.00,719.3
2019-11-22,11:30:00,DRY,5.97,7.27,78.0,773.00,730.9
2019-11-22,11:35:00,DRY,5.50,7.25,83.5,773.00,733.1
2019-11-22,11:40:00,DRY,5.70,7.10,91.3,773.00,539.7
2019-11-22,11:45:00,DRY,6.50,7.15,95.5,773.00,587.5
2019-11-22,11:50:00,WET,5.53,7.33,94.0,773.00,504.4
2019-11-22,11:55:00,DRY,6.55,7.50,95.5,773.00,715.6
2019-11-22,12:00:00,DRY,5.87,7.27,94.0,773.00,611.0
2019-11-22,12:05:00,DRY,4.50,7.60,95.0,773.00,787.4
2019-11-22,12:10:00,DRY,6.53,8.30,72.3,773.00,780.1
2019-11-22,12:15:00,DRY,3.45,8.55,72.0,773.00,785.2
2019-11-22,12:20:00,DRY,5.70,8.53,75.7,773.00,788.3
2019-11-22,12:25:00,DRY,6.05,8.50,74.0,773.00,790.9
2019-11-22,12:30:00,DRY,4.77,8.33,81.3,773.00,793.2
2019-11-22,12:35:00,DRY,5.00,8.50,84.5,773.00,551.6
2019-11-22,12:40:00,DRY,4.40,8.37,87.7,773.00,647.1
2019-11-22,12:45:00,DRY,6.75,8.30,89.5,773.00,597.4
2019-11-22,12:50:00,DRY,5.50,8.37,91.0,773.00,477.5
2019-11-22,12:55:00,DRY,5.60,8.00,94.5,773.00,453.3
2019-11-22,13:00:00,DRY,4.93,8.00,93.0,773.00,702.6
2019-11-22,13:05:00,DRY,4.45,7.95,93.0,773.00,820.9
2019-11-22,13:10:00,DRY,5.90,8.17,92.0,773.00,810.5
2019-11-22,13:15:00,DRY,5.65,8.15,89.5,773.00,830.5
2019-11-22,13:20:00,DRY,5.10,8.40,89.7,773.00,503.5
2019-11-22,13:25:00,DRY,6.10,8.60,83.5,773.00,793.0
2019-11-22,13:30:00,DRY,3.70,8.40,84.0,773.00,786.1
2019-11-22,13:35:00,DRY,2.30,8.70,87.0,773.00,819.9
2019-11-22,13:40:00,DRY,4.13,8.87,82.7,773.00,776.2
2019-11-22,13:45:00,DRY,5.30,8.65,81.5,773.00,773.2
2019-11-22,13:50:00,DRY,4.73,8.57,83.7,773.00,796.6
2019-11-22,13:55:00,DRY,4.00,8.80,82.0,773.00,763.0
2019-11-22,14:00:00,DRY,4.60,8.87,78.7,773.00,752.9
2019-11-22,14:05:00,DRY,4.50,8.75,84.5,773.00,754.8
2019-11-22,14:10:00,DRY,3.73,8.77,80.7,773.00,762.6
2019-11-22,14:15:00,DRY,5.40,8.85,81.5,773.00,738.5
2019-11-22,14:20:00,DRY,4.70,8.60,82.0,773.00,728.9
2019-11-22,14:25:00,DRY,5.70,8.70,83.0,773.00,722.4
2019-11-22,14:30:00,DRY,4.23,8.80,68.3,773.00,713.0
2019-11-22,14:35:00,DRY,4.30,8.65,71.5,773.00,704.2
2019-11-22,14:40:00,DRY,4.60,8.50,79.3,773.00,696.0
2019-11-22,14:45:00,DRY,4.90,8.65,71.0,773.00,687.1
2019-11-22,14:50:00,DRY,5.77,8.63,68.3,773.00,677.8
2019-11-22,14:55:00,DRY,6.45,8.70,68.0,772.50,666.6
2019-11-22,15:00:00,DRY,6.37,8.83,61.7,772.00,652.6
2019-11-22,15:05:00,DRY,6.55,8.85,59.0,772.00,637.8
2019-11-22,15:10:00,DRY,6.00,8.63,65.3,772.00,617.5
2019-11-22,15:15:00,DRY,5.85,8.60,63.5,772.00,601.2
2019-11-22,15:20:00,DRY,6.20,8.47,65.7,772.00,591.5
2019-11-22,15:25:00,DRY,6.75,8.55,56.5,772.00,578.0
2019-11-22,15:30:00,DRY,6.33,8.53,58.3,772.00,566.8
2019-11-22,15:35:00,DRY,6.45,8.55,55.5,772.00,552.6
2019-11-22,15:40:00,DRY,6.40,8.13,65.7,772.00,517.8
2019-11-22,15:45:00,DRY,6.50,7.95,74.0,772.00,506.0
2019-11-22,15:50:00,DRY,5.53,7.90,69.3,772.00,506.3
2019-11-22,15:55:00,DRY,6.25,7.80,70.5,772.00,491.0
2019-11-22,16:00:00,DRY,6.10,7.90,64.0,772.00,474.2
2019-11-22,16:05:00,DRY,5.45,8.05,56.5,773.00,458.6
2019-11-22,16:10:00,DRY,5.67,8.27,50.0,773.00,439.0
2019-11-22,16:15:00,DRY,3.50,8.10,57.5,773.00,422.4
2019-11-22,16:20:00,DRY,4.47,7.97,57.3,773.00,404.7
2019-11-22,16:25:00,DRY,4.95,8.05,57.5,773.00,386.6
2019-11-22,16:30:00,DRY,5.23,7.93,57.3,773.00,367.7
2019-11-22,16:35:00,DRY,5.10,7.85,57.0,773.00,348.6
2019-11-22,16:40:00,DRY,5.50,7.87,58.3,773.00,330.0
2019-11-22,16:45:00,DRY,4.55,7.70,58.0,773.00,309.4
2019-11-22,16:50:00,DRY,3.87,7.50,61.7,773.00,290.7
2019-11-22,16:55:00,DRY,4.65,7.10,70.5,773.00,271.4
2019-11-22,17:00:00,DRY,5.50,7.30,68.7,773.00,247.7
2019-11-22,17:05:00,DRY,5.05,7.10,73.0,773.00,208.4
2019-11-22,17:10:00,DRY,5.07,7.37,69.0,773.00,204.7
2019-11-22,17:15:00,DRY,5.00,7.40,67.0,773.00,180.7
2019-11-22,17:20:00,DRY,6.03,7.67,67.7,773.00,166.7
2019-11-22,17:25:00,DRY,6.25,7.70,68.0,773.00,144.5
2019-11-22,17:30:00,DRY,4.03,7.47,70.0,773.00,135.7
2019-11-22,17:35:00,DRY,5.80,7.45,71.5,773.00,118.8
2019-11-22,17:40:00,DRY,5.90,7.77,66.0,773.00,96.6
2019-11-22,17:45:00,DRY,7.05,7.85,61.5,773.00,74.6
2019-11-22,17:50:00,DRY,6.23,8.00,59.7,773.00,55.7
2019-11-22,17:55:00,DRY,6.20,7.80,62.5,773.00,40.4